Location: Ballingbuur
(53.0000°N, 5.7667°E)
Time: 20:53:33
(UTC+00:00)

ATLAS 2AS CENTAUR R/B - Pass Details

Date: 29 November 2020
Orbit: 943 x 1268 km, 63.7° (Epoch: 22 January)

Event Time Altitude Azimuth Distance (km) Brightness Sun altitude
Exits shadow 06:03:11 - 246° (WSW) 4,184 5.4 -11.6°
Reaches altitude 10° 06:05:58 10° 250° (WSW) 3,258 4.8 -11.2°
Maximum altitude 06:13:47 58° 329° (NNW) 1,445 3.1 -10.1°
Drops below altitude 10° 06:21:23 10° 48° (NE) 3,163 5.5 -9.1°
Sets 06:24:09 0° 53° (NE) 4,090 6.2 -8.7°
